BAW02 KJFK-EGLL

Flight info

Callsign BAW02
Flight time 3h 11m
Altitude 60000
Route BETTE DCT LINND DCT 3952N06815W 4025N06700W DCT 4307N06000W/N0455F600 4510N05230W/M080F600 4554N05000W 4810N04000W 4926N03000W 4949N02000W 4941N01500W DCT LULOX/N0461F600 DCT JOZMA DCT OTMET
Aircraft CONC/H-SDFGHIRWY/C

Departure

Time 2026-05-07 14:06
Airport John F. Kennedy International Airport (KJFK)

Arrival

Time 2026-05-07 17:18
Airport London Heathrow Airport (EGLL)
Time Latitude Longitude Altitude Speed Heading
2026-05-07 13:30 40.63793 -73.78178 19 ft 0 kts 83°
2026-05-07 13:56 40.63793 -73.78177 18 ft 0 kts 83°
2026-05-07 13:57 40.63792 -73.78194 18 ft 2 kts 83°
2026-05-07 13:57 40.63790 -73.78213 18 ft 2 kts 83°
2026-05-07 13:57 40.63789 -73.78232 18 ft 2 kts 99°
2026-05-07 13:57 40.63794 -73.78250 18 ft 2 kts 114°
2026-05-07 13:58 40.63802 -73.78266 18 ft 2 kts 131°
2026-05-07 13:58 40.63813 -73.78279 18 ft 2 kts 147°
2026-05-07 13:58 40.63826 -73.78287 18 ft 2 kts 163°
2026-05-07 13:58 40.63835 -73.78290 18 ft 1 kts 175°
2026-05-07 13:59 40.63839 -73.78290 18 ft 0 kts 173°
2026-05-07 14:01 40.63837 -73.78290 18 ft 2 kts 173°
2026-05-07 14:01 40.63772 -73.78279 18 ft 17 kts 173°
2026-05-07 14:01 40.63646 -73.78258 18 ft 17 kts 174°
2026-05-07 14:01 40.63533 -73.78265 16 ft 14 kts 161°
2026-05-07 14:02 40.63459 -73.78155 15 ft 20 kts 120°
2026-05-07 14:02 40.63391 -73.77994 15 ft 18 kts 119°
2026-05-07 14:02 40.63332 -73.77859 15 ft 7 kts 120°
2026-05-07 14:02 40.63331 -73.77856 15 ft 0 kts 120°
2026-05-07 14:03 40.63305 -73.77799 15 ft 14 kts 120°
2026-05-07 14:03 40.63229 -73.77630 15 ft 27 kts 121°
2026-05-07 14:03 40.63132 -73.77419 15 ft 25 kts 120°
2026-05-07 14:03 40.63046 -73.77230 15 ft 20 kts 131°
2026-05-07 14:04 40.62935 -73.77232 15 ft 15 kts 207°
2026-05-07 14:04 40.62862 -73.77270 15 ft 5 kts 240°
2026-05-07 14:04 40.62862 -73.77316 15 ft 6 kts 289°
2026-05-07 14:04 40.62883 -73.77366 15 ft 0 kts 302°
2026-05-07 14:05 40.62887 -73.77374 15 ft 7 kts 302°
2026-05-07 14:05 40.62978 -73.77570 15 ft 54 kts 302°
2026-05-07 14:06 40.63319 -73.78325 15 ft 136 kts 301°
2026-05-07 14:06 40.63938 -73.79684 15 ft 211 kts 301°
2026-05-07 14:06 40.64784 -73.81508 199 ft 248 kts 303°
2026-05-07 14:06 40.65740 -73.83482 628 ft 272 kts 305°
2026-05-07 14:07 40.66790 -73.85555 1741 ft 285 kts 306°
2026-05-07 14:07 40.67860 -73.87651 2857 ft 288 kts 302°
2026-05-07 14:07 40.68842 -73.89996 3830 ft 305 kts 289°
2026-05-07 14:07 40.69063 -73.92748 4936 ft 311 kts 258°
2026-05-07 14:08 40.68190 -73.95267 6142 ft 315 kts 230°
2026-05-07 14:08 40.66434 -73.96962 7350 ft 325 kts 202°
2026-05-07 14:08 40.64190 -73.97372 8554 ft 339 kts 176°
2026-05-07 14:08 40.61972 -73.96376 9723 ft 354 kts 151°
2026-05-07 14:09 40.60133 -73.94178 10866 ft 365 kts 137°
2026-05-07 14:09 40.58528 -73.91608 11903 ft 368 kts 136°
2026-05-07 14:09 40.56971 -73.88975 12769 ft 374 kts 135°
2026-05-07 14:09 40.55421 -73.86298 13544 ft 380 kts 135°
2026-05-07 14:10 40.53816 -73.83485 14331 ft 385 kts 135°
2026-05-07 14:10 40.52215 -73.80672 14915 ft 397 kts 135°
2026-05-07 14:10 40.50531 -73.77723 15378 ft 414 kts 135°
2026-05-07 14:10 40.48779 -73.74608 15720 ft 439 kts 131°
2026-05-07 14:11 40.47026 -73.71199 16098 ft 464 kts 131°
2026-05-07 14:11 40.45174 -73.67595 16474 ft 492 kts 131°
2026-05-07 14:11 40.43187 -73.63733 16888 ft 523 kts 131°
2026-05-07 14:11 40.41115 -73.59714 17286 ft 553 kts 130°
2026-05-07 14:12 40.38964 -73.55521 17613 ft 557 kts 130°
2026-05-07 14:12 40.36780 -73.51279 18115 ft 557 kts 131°
2026-05-07 14:12 40.34679 -73.47214 18621 ft 562 kts 131°
2026-05-07 14:12 40.32512 -73.43027 19139 ft 566 kts 131°
2026-05-07 14:13 40.30409 -73.38975 19633 ft 573 kts 131°
2026-05-07 14:13 40.28147 -73.34603 20059 ft 578 kts 133°
2026-05-07 14:13 40.25926 -73.30351 20236 ft 581 kts 133°
2026-05-07 14:13 40.23695 -73.26056 20416 ft 578 kts 133°
2026-05-07 14:14 40.21446 -73.21746 20605 ft 582 kts 133°
2026-05-07 14:14 40.19150 -73.17351 20942 ft 585 kts 133°
2026-05-07 14:14 40.16877 -73.12997 21396 ft 589 kts 133°
2026-05-07 14:14 40.14567 -73.08588 21929 ft 595 kts 133°
2026-05-07 14:15 40.12283 -73.04223 22693 ft 600 kts 133°
2026-05-07 14:15 40.09940 -72.99759 23697 ft 609 kts 134°
2026-05-07 14:15 40.07551 -72.95216 24674 ft 619 kts 133°
2026-05-07 14:15 40.05080 -72.90528 25695 ft 631 kts 134°
2026-05-07 14:16 40.02584 -72.85790 26730 ft 641 kts 134°
2026-05-07 14:16 40.00075 -72.81037 27723 ft 647 kts 134°
2026-05-07 14:16 39.97548 -72.76242 28760 ft 653 kts 134°
2026-05-07 14:16 39.94947 -72.71350 29158 ft 673 kts 134°
2026-05-07 14:17 39.92242 -72.66257 28882 ft 692 kts 133°
2026-05-07 14:17 39.89518 -72.61123 29741 ft 685 kts 133°
2026-05-07 14:17 39.86859 -72.56101 30791 ft 680 kts 133°
2026-05-07 14:17 39.84185 -72.51071 31766 ft 673 kts 134°
2026-05-07 14:18 39.81539 -72.46122 32967 ft 660 kts 134°
2026-05-07 14:18 39.78966 -72.41293 34808 ft 653 kts 134°
2026-05-07 14:18 39.76383 -72.36492 35907 ft 653 kts 134°
2026-05-07 14:18 39.73844 -72.31763 36617 ft 660 kts 134°
2026-05-07 14:19 39.71334 -72.27099 36184 ft 680 kts 134°
2026-05-07 14:19 39.68791 -72.22383 35096 ft 701 kts 134°
2026-05-07 14:19 39.65993 -72.17192 34249 ft 718 kts 133°
2026-05-07 14:19 39.63132 -72.11868 34063 ft 724 kts 133°
2026-05-07 14:20 39.60271 -72.06567 34032 ft 730 kts 133°
2026-05-07 14:20 39.54427 -71.95770 33985 ft 743 kts 133°
2026-05-07 14:21 39.48425 -71.84740 33922 ft 755 kts 133°
2026-05-07 14:21 39.45487 -71.79115 33903 ft 768 kts 125°
2026-05-07 14:21 39.43316 -71.72759 33721 ft 785 kts 110°
2026-05-07 14:21 39.42197 -71.65892 33811 ft 792 kts 97°
2026-05-07 14:22 39.42130 -71.58820 34016 ft 791 kts 83°
2026-05-07 14:22 39.43161 -71.51892 34125 ft 790 kts 72°
2026-05-07 14:22 39.44580 -71.45019 34240 ft 793 kts 76°
2026-05-07 14:22 39.45744 -71.37995 34357 ft 798 kts 78°
2026-05-07 14:23 39.46806 -71.30987 34371 ft 805 kts 79°
2026-05-07 14:23 39.48863 -71.16757 34517 ft 818 kts 80°
2026-05-07 14:23 39.49868 -71.09759 34995 ft 818 kts 79°
2026-05-07 14:24 39.50866 -71.02633 35564 ft 822 kts 79°
2026-05-07 14:24 39.51912 -70.95321 35596 ft 833 kts 79°
2026-05-07 14:24 39.52938 -70.87929 35552 ft 845 kts 79°
2026-05-07 14:24 39.53999 -70.80404 36093 ft 848 kts 79°
2026-05-07 14:25 39.55040 -70.72907 36796 ft 855 kts 79°
2026-05-07 14:25 39.56084 -70.65370 36915 ft 870 kts 79°
2026-05-07 14:25 39.57152 -70.57615 37102 ft 881 kts 79°
2026-05-07 14:25 39.58233 -70.49777 37530 ft 892 kts 79°
2026-05-07 14:26 39.59309 -70.41816 38149 ft 902 kts 79°
2026-05-07 14:26 39.60397 -70.33781 38302 ft 916 kts 79°
2026-05-07 14:26 39.61505 -70.25641 39104 ft 920 kts 80°
2026-05-07 14:26 39.62596 -70.17477 39469 ft 934 kts 79°
2026-05-07 14:27 39.63688 -70.09276 39511 ft 948 kts 80°
2026-05-07 14:27 39.64779 -70.01087 40287 ft 954 kts 80°
2026-05-07 14:27 39.65869 -69.92788 41003 ft 958 kts 79°
2026-05-07 14:28 39.68075 -69.75898 40688 ft 971 kts 79°
2026-05-07 14:28 39.69199 -69.67246 40814 ft 974 kts 79°
2026-05-07 14:28 39.70306 -69.58600 41244 ft 973 kts 79°
2026-05-07 14:28 39.71416 -69.50046 41821 ft 973 kts 79°
2026-05-07 14:29 39.72521 -69.41310 41890 ft 980 kts 79°
2026-05-07 14:29 39.73625 -69.32565 41651 ft 988 kts 80°
2026-05-07 14:29 39.74725 -69.23875 41615 ft 991 kts 80°
2026-05-07 14:29 39.75792 -69.15282 42037 ft 993 kts 80°
2026-05-07 14:30 39.76877 -69.06527 42227 ft 998 kts 80°
2026-05-07 14:30 39.79075 -68.88669 42900 ft 1004 kts 80°
2026-05-07 14:31 39.81249 -68.70749 43154 ft 1013 kts 79°
2026-05-07 14:31 39.82334 -68.61741 44315 ft 1011 kts 80°
2026-05-07 14:31 39.83400 -68.52734 44412 ft 1022 kts 80°
2026-05-07 14:31 39.84504 -68.43546 43930 ft 1036 kts 80°
2026-05-07 14:32 39.85597 -68.34308 43824 ft 1045 kts 78°
2026-05-07 14:32 39.87431 -68.25188 44382 ft 1036 kts 66°
2026-05-07 14:32 39.90261 -68.16767 45425 ft 1021 kts 57°
2026-05-07 14:32 39.93863 -68.08830 45987 ft 1026 kts 55°
2026-05-07 14:33 39.97494 -68.00811 45726 ft 1044 kts 57°
2026-05-07 14:33 40.01151 -67.92594 45524 ft 1059 kts 57°
2026-05-07 14:33 40.04836 -67.84286 47209 ft 1061 kts 57°
2026-05-07 14:33 40.08507 -67.76008 48536 ft 1069 kts 57°
2026-05-07 14:34 40.12270 -67.67491 48773 ft 1091 kts 58°
2026-05-07 14:34 40.16020 -67.58936 48371 ft 1113 kts 57°
2026-05-07 14:34 40.19861 -67.50185 49127 ft 1111 kts 58°
2026-05-07 14:34 40.23730 -67.41370 50402 ft 1115 kts 58°
2026-05-07 14:35 40.27547 -67.32615 50567 ft 1135 kts 59°
2026-05-07 14:35 40.31508 -67.23494 50167 ft 1153 kts 59°
2026-05-07 14:35 40.35436 -67.14438 51033 ft 1151 kts 59°
2026-05-07 14:35 40.39383 -67.05328 52246 ft 1155 kts 59°
2026-05-07 14:36 40.43336 -66.96169 52488 ft 1177 kts 59°
2026-05-07 14:36 40.47375 -66.86815 51998 ft 1199 kts 59°
2026-05-07 14:36 40.51452 -66.77353 52185 ft 1198 kts 59°
2026-05-07 14:36 40.55467 -66.68008 52659 ft 1195 kts 59°
2026-05-07 14:37 40.59510 -66.58562 53093 ft 1192 kts 59°
2026-05-07 14:37 40.67532 -66.39741 53828 ft 1188 kts 60°
2026-05-07 14:37 40.71567 -66.30231 54150 ft 1187 kts 60°
2026-05-07 14:38 40.75551 -66.20805 54442 ft 1185 kts 60°
2026-05-07 14:38 40.79552 -66.11312 54745 ft 1184 kts 60°
2026-05-07 14:38 40.83509 -66.01892 55020 ft 1184 kts 60°
2026-05-07 14:38 40.87494 -65.92381 55245 ft 1184 kts 60°
2026-05-07 14:39 40.91416 -65.82989 55444 ft 1184 kts 60°
2026-05-07 14:39 40.95385 -65.73451 55617 ft 1184 kts 60°
2026-05-07 14:39 40.99316 -65.63978 55773 ft 1184 kts 61°
2026-05-07 14:39 41.03263 -65.54433 55902 ft 1184 kts 61°
2026-05-07 14:40 41.07185 -65.44922 56017 ft 1184 kts 61°
2026-05-07 14:40 41.11104 -65.35384 56144 ft 1184 kts 61°
2026-05-07 14:40 41.18919 -65.16279 56304 ft 1184 kts 62°
2026-05-07 14:41 41.26687 -64.97162 56458 ft 1183 kts 62°
2026-05-07 14:41 41.30611 -64.87459 56566 ft 1182 kts 62°
2026-05-07 14:41 41.34427 -64.77994 56669 ft 1181 kts 62°
2026-05-07 14:42 41.42131 -64.58788 56788 ft 1180 kts 62°
2026-05-07 14:42 41.49826 -64.39481 56939 ft 1178 kts 62°
2026-05-07 14:43 41.57420 -64.20303 57056 ft 1177 kts 62°
2026-05-07 14:43 41.65006 -64.01013 57148 ft 1176 kts 62°
2026-05-07 14:44 41.72492 -63.81854 57180 ft 1176 kts 62°
2026-05-07 14:44 41.80028 -63.62438 57256 ft 1177 kts 62°
2026-05-07 14:45 41.87519 -63.43009 57320 ft 1177 kts 62°
2026-05-07 14:45 41.94958 -63.23589 57386 ft 1177 kts 63°
2026-05-07 14:46 42.02342 -63.04177 57435 ft 1178 kts 63°
2026-05-07 14:46 42.09769 -62.84523 57449 ft 1177 kts 63°
2026-05-07 14:47 42.17079 -62.65044 57458 ft 1177 kts 63°
2026-05-07 14:47 42.24423 -62.45339 57503 ft 1177 kts 63°
2026-05-07 14:48 42.31665 -62.25773 57544 ft 1178 kts 64°
2026-05-07 14:48 42.38884 -62.06132 57586 ft 1179 kts 64°
2026-05-07 14:49 42.46103 -61.86356 57624 ft 1179 kts 64°
2026-05-07 14:49 42.53310 -61.66472 57657 ft 1179 kts 64°
2026-05-07 14:50 42.60465 -61.46593 57710 ft 1179 kts 64°
2026-05-07 14:50 42.67594 -61.26645 57772 ft 1179 kts 64°
2026-05-07 14:51 42.74680 -61.06673 57803 ft 1179 kts 64°
2026-05-07 14:51 42.81743 -60.86621 57857 ft 1179 kts 64°
2026-05-07 14:52 42.88686 -60.66766 57931 ft 1178 kts 64°
2026-05-07 14:52 42.95684 -60.46614 58005 ft 1179 kts 64°
2026-05-07 14:53 43.02653 -60.26393 58069 ft 1179 kts 65°
2026-05-07 14:53 43.09556 -60.06212 58125 ft 1178 kts 65°
2026-05-07 14:54 43.16141 -59.85845 58171 ft 1178 kts 67°
2026-05-07 14:54 43.22591 -59.65263 58193 ft 1178 kts 66°
2026-05-07 14:55 43.28992 -59.44688 58223 ft 1179 kts 66°
2026-05-07 14:55 43.35363 -59.24049 58256 ft 1180 kts 67°
2026-05-07 14:56 43.41684 -59.03399 58273 ft 1180 kts 68°
2026-05-07 14:56 43.47946 -58.82780 58343 ft 1179 kts 67°
2026-05-07 14:57 43.54209 -58.61996 58442 ft 1178 kts 67°
2026-05-07 14:57 43.60431 -58.41179 58515 ft 1178 kts 67°
2026-05-07 14:58 43.66577 -58.20447 58652 ft 1177 kts 68°
2026-05-07 14:58 43.72727 -57.99532 58722 ft 1177 kts 68°
2026-05-07 14:59 43.78828 -57.78609 58669 ft 1178 kts 68°
2026-05-07 14:59 43.84890 -57.57650 58632 ft 1180 kts 68°
2026-05-07 15:00 43.90897 -57.36704 58640 ft 1181 kts 68°
2026-05-07 15:00 43.96915 -57.15541 58626 ft 1182 kts 68°
2026-05-07 15:01 44.02858 -56.94464 58617 ft 1183 kts 68°
2026-05-07 15:01 44.08784 -56.73268 58634 ft 1182 kts 68°
2026-05-07 15:02 44.14696 -56.51936 58632 ft 1180 kts 68°
2026-05-07 15:02 44.20507 -56.30787 58660 ft 1180 kts 69°
2026-05-07 15:03 44.26314 -56.09466 58681 ft 1180 kts 69°
2026-05-07 15:03 44.32043 -55.88246 58738 ft 1179 kts 69°
2026-05-07 15:04 44.37781 -55.66801 58831 ft 1178 kts 69°
2026-05-07 15:04 44.43409 -55.45581 58915 ft 1177 kts 69°
2026-05-07 15:05 44.49028 -55.24204 58986 ft 1176 kts 70°
2026-05-07 15:05 44.54616 -55.02749 59053 ft 1175 kts 70°
2026-05-07 15:06 44.60155 -54.81285 59125 ft 1174 kts 70°
2026-05-07 15:06 44.65616 -54.59932 59189 ft 1174 kts 70°
2026-05-07 15:07 44.71056 -54.38466 59254 ft 1172 kts 70°
2026-05-07 15:07 44.76478 -54.16866 59291 ft 1171 kts 71°
2026-05-07 15:08 44.81796 -53.95484 59310 ft 1169 kts 71°
2026-05-07 15:08 44.87113 -53.73904 59277 ft 1170 kts 71°
2026-05-07 15:09 44.92381 -53.52316 59266 ft 1170 kts 71°
2026-05-07 15:09 44.97593 -53.30755 59279 ft 1171 kts 71°
2026-05-07 15:10 45.02804 -53.08983 59277 ft 1172 kts 71°
2026-05-07 15:10 45.07957 -52.87243 59307 ft 1172 kts 71°
2026-05-07 15:11 45.13054 -52.65532 59351 ft 1172 kts 71°
2026-05-07 15:11 45.18263 -52.43771 59361 ft 1171 kts 64°
2026-05-07 15:12 45.25017 -52.22868 59386 ft 1171 kts 68°
2026-05-07 15:12 45.31376 -52.01843 59442 ft 1171 kts 67°
2026-05-07 15:13 45.37739 -51.80697 59499 ft 1171 kts 67°
2026-05-07 15:13 45.44071 -51.59495 59555 ft 1171 kts 67°
2026-05-07 15:14 45.50365 -51.38241 59599 ft 1172 kts 67°
2026-05-07 15:14 45.56650 -51.16831 59620 ft 1173 kts 67°
2026-05-07 15:15 45.62891 -50.95387 59644 ft 1173 kts 67°
2026-05-07 15:15 45.69046 -50.74057 59665 ft 1173 kts 67°
2026-05-07 15:16 45.75197 -50.52552 59679 ft 1173 kts 67°
2026-05-07 15:16 45.81329 -50.30925 59701 ft 1173 kts 68°
2026-05-07 15:17 45.87383 -50.09381 59725 ft 1172 kts 68°
2026-05-07 15:17 45.93414 -49.87849 59743 ft 1172 kts 68°
2026-05-07 15:18 45.99462 -49.66148 59770 ft 1172 kts 68°
2026-05-07 15:18 46.05458 -49.44442 59919 ft 1171 kts 68°
2026-05-07 15:19 46.08267 -49.34205 60129 ft 1171 kts 69°
2026-05-07 15:19 46.11284 -49.23163 60312 ft 1172 kts 69°
2026-05-07 15:19 46.17229 -49.01248 60227 ft 1184 kts 69°
2026-05-07 15:20 46.23140 -48.79255 60353 ft 1191 kts 69°
2026-05-07 15:20 46.26124 -48.68071 60237 ft 1192 kts 69°
2026-05-07 15:20 46.29058 -48.57027 60327 ft 1189 kts 69°
2026-05-07 15:21 46.34922 -48.34798 60258 ft 1184 kts 69°
2026-05-07 15:21 46.40702 -48.12680 60366 ft 1184 kts 69°
2026-05-07 15:22 46.46425 -47.90566 60372 ft 1181 kts 69°
2026-05-07 15:22 46.52126 -47.68324 60269 ft 1181 kts 69°
2026-05-07 15:23 46.57773 -47.46081 60349 ft 1183 kts 69°
2026-05-07 15:23 46.63390 -47.23737 60362 ft 1180 kts 70°
2026-05-07 15:24 46.68935 -47.01459 60262 ft 1179 kts 70°
2026-05-07 15:24 46.74487 -46.78937 60316 ft 1180 kts 70°
2026-05-07 15:25 46.79926 -46.56653 60356 ft 1177 kts 70°
2026-05-07 15:25 46.85368 -46.34125 60255 ft 1176 kts 71°
2026-05-07 15:26 46.90723 -46.11731 60314 ft 1178 kts 71°
2026-05-07 15:26 46.96035 -45.89290 60359 ft 1176 kts 71°
2026-05-07 15:27 47.01325 -45.66708 60268 ft 1176 kts 71°
2026-05-07 15:27 47.06579 -45.44051 60297 ft 1177 kts 71°
2026-05-07 15:28 47.11756 -45.21491 60358 ft 1177 kts 71°
2026-05-07 15:28 47.16919 -44.98748 60273 ft 1176 kts 71°
2026-05-07 15:29 47.22002 -44.76116 60296 ft 1178 kts 71°
2026-05-07 15:29 47.27087 -44.53231 60352 ft 1179 kts 71°
2026-05-07 15:30 47.32098 -44.30436 60253 ft 1179 kts 72°
2026-05-07 15:30 47.37087 -44.07484 60294 ft 1181 kts 72°
2026-05-07 15:31 47.42030 -43.84495 60336 ft 1181 kts 72°
2026-05-07 15:31 47.46899 -43.61591 60259 ft 1178 kts 72°
2026-05-07 15:32 47.51734 -43.38588 60285 ft 1179 kts 72°
2026-05-07 15:32 47.56519 -43.15571 60332 ft 1178 kts 73°
2026-05-07 15:33 47.61268 -42.92455 60258 ft 1177 kts 73°
2026-05-07 15:33 47.65958 -42.69356 60264 ft 1178 kts 73°
2026-05-07 15:34 47.70623 -42.46115 60311 ft 1178 kts 73°
2026-05-07 15:34 47.75233 -42.22870 60256 ft 1176 kts 73°
2026-05-07 15:35 47.79773 -41.99700 60258 ft 1176 kts 73°
2026-05-07 15:35 47.84287 -41.76387 60310 ft 1175 kts 73°
2026-05-07 15:36 47.88728 -41.53169 60263 ft 1174 kts 73°
2026-05-07 15:36 47.93124 -41.29897 60245 ft 1176 kts 74°
2026-05-07 15:37 47.97482 -41.06540 60301 ft 1176 kts 74°
2026-05-07 15:37 48.01804 -40.83078 60247 ft 1175 kts 74°
2026-05-07 15:38 48.06086 -40.59534 60231 ft 1176 kts 74°
2026-05-07 15:38 48.10295 -40.36090 60288 ft 1175 kts 74°
2026-05-07 15:39 48.14453 -40.12624 60223 ft 1173 kts 75°
2026-05-07 15:39 48.18677 -39.89274 60315 ft 1175 kts 77°
2026-05-07 15:40 48.22612 -39.65472 60204 ft 1175 kts 75°
2026-05-07 15:40 48.26613 -39.41885 60357 ft 1175 kts 75°
2026-05-07 15:41 48.28597 -39.30077 60199 ft 1173 kts 76°
2026-05-07 15:41 48.30540 -39.18412 60251 ft 1171 kts 76°
2026-05-07 15:41 48.32510 -39.06509 60363 ft 1174 kts 76°
2026-05-07 15:41 48.34462 -38.94630 60191 ft 1172 kts 76°
2026-05-07 15:42 48.38298 -38.71034 60368 ft 1173 kts 76°
2026-05-07 15:42 48.40205 -38.59172 60189 ft 1172 kts 76°
2026-05-07 15:42 48.42110 -38.47246 60244 ft 1170 kts 76°
2026-05-07 15:43 48.43988 -38.35400 60352 ft 1174 kts 76°
2026-05-07 15:43 48.45851 -38.23564 60184 ft 1173 kts 76°
2026-05-07 15:43 48.49565 -37.99717 60356 ft 1174 kts 76°
2026-05-07 15:44 48.51393 -37.87844 60178 ft 1172 kts 76°
2026-05-07 15:44 48.53199 -37.76026 60223 ft 1169 kts 76°
2026-05-07 15:44 48.55011 -37.64082 60366 ft 1173 kts 76°
2026-05-07 15:44 48.56820 -37.52067 60176 ft 1172 kts 76°
2026-05-07 15:45 48.60359 -37.28291 60354 ft 1174 kts 77°
2026-05-07 15:45 48.62118 -37.16341 60167 ft 1173 kts 77°
2026-05-07 15:45 48.63868 -37.04350 60237 ft 1170 kts 77°
2026-05-07 15:46 48.69026 -36.68472 60224 ft 1170 kts 77°
2026-05-07 15:46 48.70731 -36.56422 60372 ft 1174 kts 77°
2026-05-07 15:47 48.72391 -36.44590 60166 ft 1173 kts 77°
2026-05-07 15:47 48.75684 -36.20841 60369 ft 1174 kts 78°
2026-05-07 15:47 48.77321 -36.08895 60175 ft 1173 kts 78°
2026-05-07 15:48 48.78963 -35.96807 60205 ft 1170 kts 78°
2026-05-07 15:48 48.80571 -35.84871 60355 ft 1174 kts 78°
2026-05-07 15:48 48.82200 -35.72683 60159 ft 1173 kts 78°
2026-05-07 15:49 48.85363 -35.48704 60349 ft 1174 kts 78°
2026-05-07 15:49 48.86959 -35.36453 60141 ft 1173 kts 78°
2026-05-07 15:49 48.88497 -35.24536 60167 ft 1170 kts 78°
2026-05-07 15:49 48.90064 -35.12290 60335 ft 1175 kts 78°
2026-05-07 15:50 48.91587 -35.00288 60133 ft 1175 kts 78°
2026-05-07 15:50 48.94613 -34.76117 60328 ft 1175 kts 78°
2026-05-07 15:50 48.96131 -34.63821 60123 ft 1174 kts 78°
2026-05-07 15:51 48.97604 -34.51786 60143 ft 1171 kts 78°
2026-05-07 15:51 48.99076 -34.39637 60315 ft 1174 kts 78°
2026-05-07 15:51 49.00538 -34.27466 60130 ft 1174 kts 79°
2026-05-07 15:52 49.03413 -34.03195 60311 ft 1174 kts 79°
2026-05-07 15:52 49.04839 -33.90976 60117 ft 1173 kts 79°
2026-05-07 15:52 49.06241 -33.78845 60136 ft 1170 kts 79°
2026-05-07 15:52 49.07634 -33.66684 60306 ft 1174 kts 79°
2026-05-07 15:53 49.09027 -33.54400 60108 ft 1174 kts 79°
2026-05-07 15:53 49.11749 -33.30053 60298 ft 1174 kts 80°
2026-05-07 15:53 49.13085 -33.17910 60115 ft 1174 kts 80°
2026-05-07 15:54 49.14408 -33.05757 60116 ft 1170 kts 80°
2026-05-07 15:54 49.15739 -32.93424 60284 ft 1174 kts 80°
2026-05-07 15:54 49.17043 -32.81208 60081 ft 1174 kts 80°
2026-05-07 15:55 49.19617 -32.56707 60284 ft 1176 kts 80°
2026-05-07 15:55 49.20882 -32.44466 60089 ft 1175 kts 80°
2026-05-07 15:55 49.22126 -32.32308 60110 ft 1172 kts 81°
2026-05-07 15:55 49.23370 -32.20016 60265 ft 1176 kts 81°
2026-05-07 15:56 49.24602 -32.07696 60092 ft 1176 kts 81°
2026-05-07 15:56 49.27029 -31.83028 60273 ft 1176 kts 81°
2026-05-07 15:56 49.28212 -31.70807 60088 ft 1176 kts 81°
2026-05-07 15:57 49.29395 -31.58433 60105 ft 1172 kts 81°
2026-05-07 15:57 49.30557 -31.46150 60272 ft 1176 kts 81°
2026-05-07 15:57 49.31707 -31.33835 60077 ft 1176 kts 82°
2026-05-07 15:58 49.33966 -31.09201 60240 ft 1175 kts 82°
2026-05-07 15:58 49.35085 -30.96789 60089 ft 1174 kts 82°
2026-05-07 15:58 49.36174 -30.84553 60116 ft 1172 kts 82°
2026-05-07 15:58 49.37256 -30.72241 60244 ft 1175 kts 82°
2026-05-07 15:59 49.38336 -30.59796 60078 ft 1175 kts 82°
2026-05-07 15:59 49.40433 -30.35159 60236 ft 1175 kts 82°
2026-05-07 15:59 49.41461 -30.22844 60056 ft 1175 kts 83°
2026-05-07 16:00 49.42482 -30.10453 60105 ft 1172 kts 83°
2026-05-07 16:00 49.43480 -29.98026 60224 ft 1174 kts 78°
2026-05-07 16:00 49.44671 -29.85680 60145 ft 1174 kts 84°
2026-05-07 16:01 49.46477 -29.60862 60072 ft 1175 kts 82°
2026-05-07 16:01 49.48394 -29.36069 60157 ft 1174 kts 82°
2026-05-07 16:02 49.50251 -29.11435 60096 ft 1172 kts 83°
2026-05-07 16:02 49.52075 -28.86484 60052 ft 1174 kts 83°
2026-05-07 16:03 49.53839 -28.61602 60149 ft 1176 kts 83°
2026-05-07 16:03 49.54697 -28.49204 60035 ft 1176 kts 83°
2026-05-07 16:03 49.55545 -28.36767 60075 ft 1175 kts 83°
2026-05-07 16:04 49.57169 -28.12361 60023 ft 1177 kts 84°
2026-05-07 16:04 49.58769 -27.87507 60104 ft 1179 kts 84°
2026-05-07 16:04 49.59550 -27.75051 59989 ft 1177 kts 84°
2026-05-07 16:05 49.60319 -27.62569 60061 ft 1177 kts 84°
2026-05-07 16:05 49.61819 -27.37583 59974 ft 1178 kts 84°
2026-05-07 16:06 49.63271 -27.12457 60115 ft 1181 kts 85°
2026-05-07 16:06 49.63971 -26.99990 59971 ft 1180 kts 85°
2026-05-07 16:06 49.64660 -26.87475 60065 ft 1180 kts 85°
2026-05-07 16:07 49.65994 -26.62504 59956 ft 1181 kts 85°
2026-05-07 16:07 49.66643 -26.49965 60059 ft 1180 kts 85°
2026-05-07 16:07 49.67269 -26.37616 60125 ft 1183 kts 85°
2026-05-07 16:07 49.67894 -26.25042 59946 ft 1180 kts 85°
2026-05-07 16:08 49.68498 -26.12594 60042 ft 1178 kts 85°
2026-05-07 16:08 49.69677 -25.87452 59936 ft 1180 kts 85°
2026-05-07 16:09 49.70792 -25.62502 60122 ft 1183 kts 85°
2026-05-07 16:09 49.71327 -25.50090 59935 ft 1182 kts 85°
2026-05-07 16:09 49.71856 -25.37498 60011 ft 1180 kts 85°
2026-05-07 16:09 49.72366 -25.25038 60118 ft 1184 kts 86°
2026-05-07 16:10 49.72862 -25.12581 59922 ft 1183 kts 86°
2026-05-07 16:10 49.73816 -24.87628 60095 ft 1184 kts 86°
2026-05-07 16:10 49.74273 -24.75145 59920 ft 1183 kts 86°
2026-05-07 16:11 49.74716 -24.62683 59960 ft 1181 kts 86°
2026-05-07 16:11 49.75148 -24.50114 60082 ft 1185 kts 86°
2026-05-07 16:11 49.75565 -24.37638 59910 ft 1184 kts 86°
2026-05-07 16:12 49.76358 -24.12629 60074 ft 1185 kts 87°
2026-05-07 16:12 49.76730 -24.00275 59907 ft 1184 kts 87°
2026-05-07 16:12 49.77097 -23.87654 59923 ft 1181 kts 87°
2026-05-07 16:12 49.77446 -23.75137 60069 ft 1185 kts 87°
2026-05-07 16:13 49.77781 -23.62694 59917 ft 1184 kts 87°
2026-05-07 16:13 49.78410 -23.37778 60060 ft 1185 kts 87°
2026-05-07 16:13 49.78704 -23.25319 59924 ft 1185 kts 88°
2026-05-07 16:14 49.78989 -23.12716 59896 ft 1182 kts 88°
2026-05-07 16:14 49.79257 -23.00244 60051 ft 1185 kts 88°
2026-05-07 16:14 49.79516 -22.87563 59913 ft 1186 kts 88°
2026-05-07 16:15 49.79983 -22.62697 60029 ft 1186 kts 88°
2026-05-07 16:15 49.80197 -22.50237 59904 ft 1187 kts 88°
2026-05-07 16:15 49.80398 -22.37761 59859 ft 1183 kts 88°
2026-05-07 16:15 49.80584 -22.25363 60022 ft 1186 kts 89°
2026-05-07 16:16 49.80756 -22.12979 59913 ft 1187 kts 89°
2026-05-07 16:16 49.81069 -21.87636 60013 ft 1185 kts 89°
2026-05-07 16:17 49.81326 -21.62373 59850 ft 1184 kts 89°
2026-05-07 16:17 49.81433 -21.49750 60004 ft 1186 kts 89°
2026-05-07 16:17 49.81528 -21.37041 59908 ft 1187 kts 89°
2026-05-07 16:18 49.81675 -21.11622 59994 ft 1186 kts 89°
2026-05-07 16:18 49.81766 -20.86314 59836 ft 1184 kts 89°
2026-05-07 16:18 49.81791 -20.73617 59992 ft 1186 kts 89°
2026-05-07 16:19 49.81802 -20.60996 59905 ft 1186 kts 89°
2026-05-07 16:19 49.81783 -20.35616 59998 ft 1185 kts 89°
2026-05-07 16:20 49.81710 -20.10251 59834 ft 1183 kts 90°
2026-05-07 16:20 49.81593 -19.97671 59998 ft 1185 kts 88°
2026-05-07 16:20 49.81633 -19.85152 59959 ft 1187 kts 91°
2026-05-07 16:21 49.81388 -19.59695 59929 ft 1184 kts 90°
2026-05-07 16:21 49.81143 -19.34477 59870 ft 1184 kts 91°
2026-05-07 16:22 49.80844 -19.09134 59960 ft 1185 kts 91°
2026-05-07 16:22 49.80490 -18.83897 59930 ft 1183 kts 91°
2026-05-07 16:23 49.80082 -18.58654 59874 ft 1184 kts 91°
2026-05-07 16:23 49.79617 -18.33359 59964 ft 1186 kts 92°
2026-05-07 16:24 49.79097 -18.08010 59929 ft 1184 kts 92°
2026-05-07 16:24 49.78519 -17.82626 59873 ft 1185 kts 92°
2026-05-07 16:25 49.77892 -17.57450 59967 ft 1186 kts 92°
2026-05-07 16:25 49.77206 -17.32107 59935 ft 1185 kts 92°
2026-05-07 16:26 49.76465 -17.06801 59873 ft 1186 kts 93°
2026-05-07 16:26 49.75699 -16.82446 59978 ft 1188 kts 93°
2026-05-07 16:27 49.74847 -16.57102 59944 ft 1186 kts 93°
2026-05-07 16:27 49.73964 -16.32393 59899 ft 1187 kts 94°
2026-05-07 16:28 49.73201 -16.12136 59990 ft 1188 kts 94°
2026-05-07 16:28 49.72179 -15.86375 59905 ft 1186 kts 94°
2026-05-07 16:29 49.71139 -15.61564 59937 ft 1189 kts 94°
2026-05-07 16:29 49.70027 -15.36337 59996 ft 1189 kts 94°
2026-05-07 16:30 49.68863 -15.11156 59907 ft 1188 kts 94°
2026-05-07 16:30 49.69450 -14.85841 59950 ft 1186 kts 77°
2026-05-07 16:30 49.71304 -14.73781 60156 ft 1186 kts 74°
2026-05-07 16:31 49.73232 -14.61576 60155 ft 1195 kts 79°
2026-05-07 16:31 49.74737 -14.49397 59901 ft 1194 kts 78°
2026-05-07 16:31 49.76227 -14.37566 59924 ft 1188 kts 78°
2026-05-07 16:31 49.77758 -14.25192 60062 ft 1189 kts 79°
2026-05-07 16:32 49.79227 -14.13123 59962 ft 1189 kts 79°
2026-05-07 16:32 49.82212 -13.88316 60023 ft 1188 kts 79°
2026-05-07 16:33 49.85170 -13.63240 59918 ft 1187 kts 79°
2026-05-07 16:33 49.88076 -13.38110 59932 ft 1189 kts 79°
2026-05-07 16:34 49.90906 -13.13145 60001 ft 1188 kts 80°
2026-05-07 16:34 49.93691 -12.88075 59949 ft 1186 kts 80°
2026-05-07 16:35 49.96432 -12.62883 59927 ft 1187 kts 80°
2026-05-07 16:35 49.99104 -12.37791 59984 ft 1188 kts 80°
2026-05-07 16:36 50.01712 -12.12776 59959 ft 1187 kts 81°
2026-05-07 16:36 50.04216 -11.88233 59937 ft 1187 kts 81°
2026-05-07 16:37 50.06726 -11.63073 59985 ft 1190 kts 81°
2026-05-07 16:37 50.09145 -11.38262 59974 ft 1190 kts 81°
2026-05-07 16:38 50.11453 -11.14055 59955 ft 1189 kts 82°
2026-05-07 16:38 50.13802 -10.88823 59983 ft 1189 kts 82°
2026-05-07 16:39 50.16098 -10.63539 59967 ft 1190 kts 82°
2026-05-07 16:39 50.18338 -10.38263 59949 ft 1191 kts 82°
2026-05-07 16:40 50.20539 -10.12769 59956 ft 1192 kts 83°
2026-05-07 16:40 50.22678 -9.87333 59972 ft 1192 kts 83°
2026-05-07 16:41 50.24779 -9.61643 59962 ft 1192 kts 83°
2026-05-07 16:41 50.26801 -9.36217 59970 ft 1191 kts 83°
2026-05-07 16:42 50.28783 -9.10581 59978 ft 1191 kts 83°
2026-05-07 16:42 50.30696 -8.85078 59984 ft 1190 kts 83°
2026-05-07 16:43 50.32560 -8.59465 59981 ft 1190 kts 83°
2026-05-07 16:43 50.34360 -8.33946 59982 ft 1191 kts 84°
2026-05-07 16:44 50.36090 -8.08607 59983 ft 1191 kts 84°
2026-05-07 16:44 50.38032 -7.83196 59987 ft 1191 kts 83°
2026-05-07 16:45 50.40052 -7.57727 59968 ft 1191 kts 83°
2026-05-07 16:45 50.41980 -7.32782 60003 ft 1191 kts 84°
2026-05-07 16:46 50.43885 -7.07384 59978 ft 1190 kts 84°
2026-05-07 16:46 50.45690 -6.82575 59967 ft 1190 kts 84°
2026-05-07 16:47 50.47459 -6.57518 59987 ft 1191 kts 84°
2026-05-07 16:47 50.49212 -6.31869 59981 ft 1191 kts 84°
2026-05-07 16:48 50.50913 -6.06136 59962 ft 1192 kts 84°
2026-05-07 16:48 50.52531 -5.80808 59972 ft 1192 kts 84°
2026-05-07 16:49 50.54104 -5.55292 59596 ft 1192 kts 84°
2026-05-07 16:49 50.54877 -5.42406 58251 ft 1173 kts 84°
2026-05-07 16:49 50.55607 -5.30017 56890 ft 1145 kts 85°
2026-05-07 16:49 50.56318 -5.17727 55612 ft 1123 kts 85°
2026-05-07 16:50 50.56981 -5.06032 54346 ft 1107 kts 85°
2026-05-07 16:50 50.57633 -4.94337 53064 ft 1091 kts 85°
2026-05-07 16:50 50.58256 -4.82967 51780 ft 1073 kts 85°
2026-05-07 16:50 50.58853 -4.71852 50494 ft 1057 kts 85°
2026-05-07 16:51 50.59440 -4.60726 49200 ft 1041 kts 85°
2026-05-07 16:51 50.60004 -4.49854 47994 ft 1026 kts 85°
2026-05-07 16:51 50.60564 -4.38834 46714 ft 1011 kts 85°
2026-05-07 16:51 50.61104 -4.28045 45377 ft 995 kts 86°
2026-05-07 16:52 50.61627 -4.17371 44019 ft 977 kts 86°
2026-05-07 16:52 50.62124 -4.07042 42780 ft 962 kts 86°
2026-05-07 16:52 50.62599 -3.96978 41560 ft 948 kts 86°
2026-05-07 16:52 50.63052 -3.86895 40312 ft 896 kts 86°
2026-05-07 16:53 50.63461 -3.77508 38937 ft 824 kts 86°
2026-05-07 16:53 50.63820 -3.69124 37826 ft 743 kts 86°
2026-05-07 16:53 50.64151 -3.61295 36771 ft 708 kts 87°
2026-05-07 16:53 50.64456 -3.53934 35747 ft 648 kts 87°
2026-05-07 16:54 50.64719 -3.47483 34377 ft 624 kts 87°
2026-05-07 16:54 50.64986 -3.40686 32674 ft 609 kts 87°
2026-05-07 16:54 50.65240 -3.34183 31674 ft 601 kts 88°
2026-05-07 16:54 50.65497 -3.27588 31474 ft 605 kts 88°
2026-05-07 16:55 50.65736 -3.21338 31181 ft 609 kts 88°
2026-05-07 16:55 50.65972 -3.15148 30744 ft 608 kts 88°
2026-05-07 16:55 50.66225 -3.08360 30207 ft 605 kts 88°
2026-05-07 16:55 50.66459 -3.02005 29720 ft 603 kts 88°
2026-05-07 16:56 50.66695 -2.95463 29308 ft 599 kts 88°
2026-05-07 16:56 50.66922 -2.89101 29681 ft 592 kts 88°
2026-05-07 16:56 50.67369 -2.76252 29561 ft 580 kts 88°
2026-05-07 16:57 50.67582 -2.70005 29291 ft 566 kts 88°
2026-05-07 16:57 50.67784 -2.63986 29060 ft 564 kts 88°
2026-05-07 16:57 50.67981 -2.57993 28837 ft 562 kts 88°
2026-05-07 16:57 50.68562 -2.52002 28586 ft 562 kts 71°
2026-05-07 16:58 50.69990 -2.46318 28454 ft 560 kts 73°
2026-05-07 16:58 50.70801 -2.40401 28347 ft 557 kts 86°
2026-05-07 16:58 50.70728 -2.34363 28233 ft 554 kts 102°
2026-05-07 16:58 50.69713 -2.28603 28140 ft 550 kts 114°
2026-05-07 16:59 50.68624 -2.22959 27968 ft 553 kts 100°
2026-05-07 16:59 50.68000 -2.17035 27813 ft 543 kts 102°
2026-05-07 16:59 50.67272 -2.11377 27552 ft 522 kts 103°
2026-05-07 16:59 50.66516 -2.05862 27277 ft 516 kts 104°
2026-05-07 17:00 50.66098 -2.00319 26986 ft 518 kts 90°
2026-05-07 17:00 50.66188 -1.94755 26769 ft 519 kts 90°
2026-05-07 17:00 50.66255 -1.89092 26495 ft 518 kts 90°
2026-05-07 17:00 50.66317 -1.83516 26165 ft 515 kts 90°
2026-05-07 17:01 50.66380 -1.77839 25752 ft 512 kts 90°
2026-05-07 17:01 50.66437 -1.72306 25363 ft 522 kts 90°
2026-05-07 17:01 50.66495 -1.66502 25003 ft 528 kts 90°
2026-05-07 17:01 50.66658 -1.60802 24620 ft 527 kts 80°
2026-05-07 17:02 50.67732 -1.55362 24291 ft 525 kts 63°
2026-05-07 17:02 50.69627 -1.50512 23995 ft 523 kts 53°
2026-05-07 17:02 50.71869 -1.46048 23678 ft 519 kts 49°
2026-05-07 17:02 50.74231 -1.41793 23366 ft 517 kts 47°
2026-05-07 17:03 50.76632 -1.37684 22914 ft 515 kts 46°
2026-05-07 17:03 50.79082 -1.33602 22510 ft 511 kts 46°
2026-05-07 17:03 50.81537 -1.29560 22107 ft 508 kts 46°
2026-05-07 17:03 50.83979 -1.25560 21395 ft 508 kts 46°
2026-05-07 17:04 50.86351 -1.21680 20605 ft 508 kts 46°
2026-05-07 17:04 50.88809 -1.17660 19779 ft 507 kts 46°
2026-05-07 17:04 50.91225 -1.13709 18964 ft 506 kts 46°
2026-05-07 17:04 50.93665 -1.09713 18125 ft 503 kts 46°
2026-05-07 17:05 50.96067 -1.05780 17349 ft 499 kts 46°
2026-05-07 17:05 50.98459 -1.01856 16537 ft 495 kts 46°
2026-05-07 17:05 51.00822 -0.97929 15766 ft 490 kts 50°
2026-05-07 17:05 51.02973 -0.93847 14962 ft 485 kts 47°
2026-05-07 17:06 51.05237 -0.89961 14180 ft 480 kts 48°
2026-05-07 17:06 51.07480 -0.86036 13516 ft 474 kts 48°
2026-05-07 17:06 51.09645 -0.82214 13253 ft 459 kts 49°
2026-05-07 17:06 51.11705 -0.78544 13081 ft 446 kts 49°
2026-05-07 17:07 51.13741 -0.74905 12900 ft 429 kts 49°
2026-05-07 17:07 51.15650 -0.71487 12703 ft 409 kts 49°
2026-05-07 17:07 51.17462 -0.68238 12446 ft 382 kts 49°
2026-05-07 17:07 51.19124 -0.65255 12162 ft 344 kts 49°
2026-05-07 17:08 51.20625 -0.62558 11824 ft 311 kts 49°
2026-05-07 17:08 51.22025 -0.60037 11603 ft 305 kts 49°
2026-05-07 17:08 51.23416 -0.57530 11235 ft 304 kts 49°
2026-05-07 17:08 51.24791 -0.55049 10702 ft 303 kts 49°
2026-05-07 17:09 51.26135 -0.52646 10181 ft 298 kts 42°
2026-05-07 17:09 51.27852 -0.51065 9640 ft 290 kts
2026-05-07 17:09 51.29787 -0.51146 8992 ft 281 kts 337°
2026-05-07 17:09 51.31365 -0.52873 8339 ft 276 kts 304°
2026-05-07 17:10 51.32249 -0.55554 7687 ft 274 kts 292°
2026-05-07 17:10 51.32898 -0.58230 6998 ft 253 kts 291°
2026-05-07 17:10 51.33492 -0.60785 6943 ft 248 kts 290°
2026-05-07 17:10 51.34089 -0.63361 7066 ft 251 kts 290°
2026-05-07 17:11 51.34699 -0.65977 7000 ft 253 kts 290°
2026-05-07 17:11 51.35287 -0.68501 6217 ft 254 kts 291°
2026-05-07 17:11 51.35894 -0.71117 5220 ft 252 kts 290°
2026-05-07 17:11 51.36474 -0.73577 4281 ft 244 kts 290°
2026-05-07 17:12 51.37063 -0.76050 3686 ft 240 kts 291°
2026-05-07 17:12 51.37657 -0.78544 4088 ft 239 kts 291°
2026-05-07 17:12 51.38244 -0.81025 4221 ft 245 kts 291°
2026-05-07 17:12 51.39085 -0.83362 4049 ft 245 kts 324°
2026-05-07 17:13 51.40615 -0.84381 3989 ft 232 kts 356°
2026-05-07 17:13 51.42218 -0.84499 3955 ft 231 kts
2026-05-07 17:13 51.43819 -0.84518 4002 ft 230 kts
2026-05-07 17:13 51.45336 -0.83872 4017 ft 229 kts 40°
2026-05-07 17:14 51.46421 -0.82020 3648 ft 226 kts 54°
2026-05-07 17:14 51.47309 -0.79969 3193 ft 224 kts 72°
2026-05-07 17:14 51.47522 -0.77520 3079 ft 221 kts 90°
2026-05-07 17:14 51.47556 -0.75101 2977 ft 221 kts 89°
2026-05-07 17:15 51.47602 -0.72625 2867 ft 221 kts 90°
2026-05-07 17:15 51.47635 -0.70173 2711 ft 219 kts 90°
2026-05-07 17:15 51.47659 -0.67744 2433 ft 219 kts 90°
2026-05-07 17:15 51.47678 -0.65395 2146 ft 211 kts 91°
2026-05-07 17:16 51.47689 -0.63078 1872 ft 209 kts 91°
2026-05-07 17:16 51.47701 -0.60749 1597 ft 207 kts 91°
2026-05-07 17:16 51.47712 -0.58478 1327 ft 207 kts 91°
2026-05-07 17:16 51.47718 -0.56218 1056 ft 205 kts 92°
2026-05-07 17:17 51.47714 -0.53937 814 ft 203 kts 91°
2026-05-07 17:17 51.47731 -0.51713 502 ft 199 kts 90°
2026-05-07 17:17 51.47747 -0.49516 211 ft 196 kts 92°
2026-05-07 17:17 51.47749 -0.47524 90 ft 165 kts 91°
2026-05-07 17:18 51.47758 -0.46143 86 ft 73 kts 89°
2026-05-07 17:18 51.47757 -0.45649 87 ft 16 kts 90°
2026-05-07 17:18 51.47730 -0.45506 88 ft 11 kts 141°
2026-05-07 17:18 51.47664 -0.45471 89 ft 8 kts 173°
2026-05-07 17:19 51.47625 -0.45469 89 ft 3 kts 179°
2026-05-07 17:19 51.47616 -0.45469 90 ft 3 kts 179°
2026-05-07 17:19 51.47530 -0.45447 92 ft 15 kts 146°
2026-05-07 17:19 51.47507 -0.45309 94 ft 18 kts 90°
2026-05-07 17:20 51.47508 -0.45074 96 ft 19 kts 90°
2026-05-07 17:20 51.47507 -0.44878 98 ft 19 kts 91°
2026-05-07 17:20 51.47503 -0.44623 95 ft 23 kts 92°
2026-05-07 17:20 51.47503 -0.44382 95 ft 20 kts 89°
2026-05-07 17:21 51.47502 -0.44168 91 ft 18 kts 94°
2026-05-07 17:21 51.47429 -0.44059 88 ft 15 kts 179°
2026-05-07 17:21 51.47300 -0.44061 88 ft 21 kts 180°
2026-05-07 17:21 51.47166 -0.44060 90 ft 16 kts 179°
2026-05-07 17:22 51.47058 -0.44059 90 ft 13 kts 179°
2026-05-07 17:22 51.46948 -0.44057 90 ft 17 kts 179°
2026-05-07 17:22 51.46867 -0.44056 90 ft 0 kts 179°
2026-05-07 17:23 51.46851 -0.44056 90 ft 8 kts 179°
2026-05-07 17:23 51.46760 -0.44054 90 ft 13 kts 178°
2026-05-07 17:24 51.46674 -0.44055 89 ft 11 kts 180°
2026-05-07 17:24 51.46640 -0.44054 89 ft 5 kts 179°
2026-05-07 17:24 51.46567 -0.44053 89 ft 13 kts 180°
2026-05-07 17:24 51.46428 -0.44094 88 ft 20 kts 208°
2026-05-07 17:25 51.46337 -0.44176 88 ft 0 kts 207°
2026-05-07 17:25 51.46334 -0.44179 88 ft 3 kts 207°
2026-05-07 17:26 51.46276 -0.44226 88 ft 14 kts 204°
2026-05-07 17:26 51.46152 -0.44312 88 ft 20 kts 202°
2026-05-07 17:26 51.46046 -0.44388 90 ft 10 kts 209°
2026-05-07 17:26 51.46034 -0.44418 91 ft 5 kts 277°
2026-05-07 17:27 51.46049 -0.44472 90 ft 3 kts 292°
2026-05-07 17:27 51.46054 -0.44492 90 ft 0 kts 292°